CDT,Max TemperatureF,Mean TemperatureF,Min TemperatureF,Max Dew PointF,MeanDew PointF,Min DewpointF,Max Humidity, Mean Humidity, Min Humidity, Max Sea Level PressureIn, Mean Sea Level PressureIn, Min Sea Level PressureIn, Max VisibilityMiles, Mean VisibilityMiles, Min VisibilityMiles, Max Wind SpeedMPH, Mean Wind SpeedMPH, Max Gust SpeedMPH,PrecipitationIn, CloudCover, Events, WindDirDegrees
2013-3-1,28,20,11,16,14,8,87,72,56,30.36,30.32,30.24,10,10,10,14,7,18,0.00,4,,21
2013-3-2,26,11,-4,12,5,-8,90,71,46,30.35,30.28,30.16,10,10,10,7,1,,0.00,3,,309
2013-3-3,32,18,4,7,2,-3,88,50,26,30.16,30.07,30.01,10,10,10,12,3,16,0.00,5,,109
2013-3-4,28,24,20,22,12,0,93,63,38,30.05,30.01,29.97,10,9,4,14,6,21,0.00,8,Snow,94
2013-3-5,27,22,18,24,21,14,93,88,77,30.29,30.12,30.00,10,7,2,12,6,16,0.01,8,Rain-Snow,31
2013-3-6,27,16,4,17,11,1,92,81,59,30.41,30.36,30.29,10,10,7,10,4,,0.05,2,,308
2013-3-7,31,14,-4,16,6,-9,90,72,49,30.40,30.34,30.29,10,10,7,9,1,,0.14,1,,142
2013-3-8,36,23,10,26,19,7,88,77,64,30.32,30.24,30.09,10,10,10,9,4,,0.03,0,,140
2013-3-9,35,32,30,34,32,25,96,92,76,30.08,29.85,29.70,10,6,2,12,6,,0.52,8,Rain,128
2013-3-10,33,30,27,32,27,22,96,83,76,29.99,29.91,29.80,10,10,10,17,11,26,0.02,8,,1
2013-3-11,31,27,22,22,21,18,85,78,59,29.89,29.79,29.73,10,10,10,16,11,20,0.00,8,,339
2013-3-12,30,22,14,18,13,6,91,69,42,30.16,29.93,29.80,10,10,10,16,7,24,0.00,6,,309
2013-3-13,32,20,8,14,10,4,91,64,38,30.35,30.28,30.17,10,10,10,9,5,,0.00,0,,274
2013-3-14,36,28,20,26,22,13,92,77,63,30.23,30.11,30.01,10,10,5,9,4,,0.03,4,Snow,176
2013-3-15,32,26,20,29,23,17,94,81,58,29.99,29.93,29.88,10,9,3,13,5,18,0.01,7,Rain-Snow,36
2013-3-16,25,18,9,17,9,-1,87,68,47,30.23,30.08,29.93,10,10,10,13,8,18,0.02,4,,328
2013-3-17,24,10,-5,12,1,-9,84,59,40,30.27,30.13,29.89,10,10,10,13,6,17,0.00,6,,104
2013-3-18,27,19,11,25,15,4,91,77,65,29.88,29.65,29.56,10,9,2,21,14,30,0.00,8,Snow,204
2013-3-19,23,14,6,6,1,-6,77,59,45,30.14,29.96,29.73,10,10,10,17,13,24,0.00,2,,282
2013-3-20,21,11,1,5,-1,-8,68,57,46,30.15,30.12,30.07,10,10,10,17,10,23,0.00,4,,298
2013-3-21,27,13,-1,8,3,-6,85,64,45,30.11,30.07,30.03,10,10,10,6,2,,0.00,1,,281
2013-3-22,34,17,0,14,8,-4,88,65,40,30.09,30.05,30.02,10,10,10,6,2,,0.00,0,,290
2013-3-23,37,26,14,21,16,10,84,63,43,30.15,30.10,30.06,10,10,10,6,1,,0.00,3,,299
2013-3-24,32,28,25,23,20,18,74,69,63,30.08,30.05,30.00,10,10,10,16,8,22,0.00,6,,31
2013-3-25,36,27,18,22,17,12,76,62,47,30.19,30.12,30.05,10,10,10,16,7,21,0.00,3,,341
2013-3-26,40,34,28,22,20,16,69,59,38,30.28,30.24,30.19,10,10,10,7,4,,0.00,8,,304
2013-3-27,41,33,25,23,19,15,75,56,35,30.33,30.30,30.28,10,10,10,5,1,,0.00,4,,272
2013-3-28,42,28,15,20,17,13,90,61,37,30.34,30.31,30.27,10,10,10,8,1,,0.00,1,,182
2013-3-29,44,34,23,33,25,18,86,68,54,30.28,30.21,30.07,10,10,10,13,4,,0.01,5,Rain,155
2013-3-30,50,42,35,39,35,31,95,81,53,30.06,29.88,29.82,10,9,4,15,7,20,0.45,5,Rain-Thunderstorm,235
2013-3-31,35,29,23,31,22,12,92,68,41,30.07,29.86,29.76,10,10,10,20,10,28,0.00,4,Rain,291